FW1203 Weather Reports


Display with metric or nautical units.
time (UTC)temp
F
wind
direction
speed
MPH
gust
MPH
rain 1hr
in
rain 24hr
in
rain mn
in
humidity
%
barometer
mb
20260902234803 90 0 0.0 0.0 0.00 0.00 0.00 67 1009.4
20260902234303 91 0 0.0 0.0 0.00 0.00 0.00 67 1009.4
20260902233803 91 0 0.0 0.0 0.00 0.00 0.00 67 1009.4
20260902233303 91 0 0.0 0.0 0.00 0.00 0.00 67 1009.4
20260902232803 91 0 0.0 0.0 0.00 0.00 0.00 66 1009.4
20260902232306 91 0 0.0 0.0 0.00 0.00 0.00 66 1009.3
20260902231803 91 0 0.0 0.0 0.00 0.00 0.00 66 1009.4
20260902231303 91 0 0.0 0.0 0.00 0.00 0.00 66 1009.4
20260902230803 91 0 0.0 0.0 0.00 0.00 0.00 66 1009.5
20260902230303 91 0 0.0 0.0 0.00 0.00 0.00 66 1009.4
20260902225803 91 0 0.0 0.0 0.00 0.00 0.00 66 1009.4
20260902225306 91 0 0.0 0.0 0.00 0.00 0.00 65 1009.4
20260902224803 92 0 0.0 0.0 0.00 0.00 0.00 64 1009.4
20260902224303 92 0 0.0 0.0 0.00 0.00 0.00 64 1009.4
20260902223803 92 0 0.0 0.0 0.00 0.00 0.00 63 1009.4
20260902223303 92 0 0.0 0.0 0.00 0.00 0.00 64 1009.6
20260902222803 92 0 0.0 0.0 0.00 0.00 0.00 63 1009.6
20260902222305 93 0 0.0 0.0 0.00 0.00 0.00 64 1009.6
20260902221803 93 0 0.0 0.0 0.00 0.00 0.00 62 1009.6
20260902221303 93 0 0.0 0.0 0.00 0.00 0.00 63 1009.6
20260902220803 93 0 0.0 0.0 0.00 0.00 0.00 61 1009.6
20260902220303 94 0 0.0 0.0 0.00 0.00 0.00 62 1009.6
20260902215803 94 0 0.0 0.0 0.00 0.00 0.00 62 1009.7
20260902215306 94 0 0.0 0.0 0.00 0.00 0.00 61 1009.7
20260902214803 94 0 0.0 0.0 0.00 0.00 0.00 60 1009.7
20260902214303 94 0 0.0 0.0 0.00 0.00 0.00 60 1009.7
20260902213803 94 0 0.0 0.0 0.00 0.00 0.00 59 1009.8
20260902213303 94 0 0.0 0.0 0.00 0.00 0.00 59 1009.8
20260902212803 94 0 0.0 0.0 0.00 0.00 0.00 58 1009.7
20260902212305 94 0 0.0 0.0 0.00 0.00 0.00 59 1009.7
20260902211803 94 0 0.0 0.0 0.00 0.00 0.00 59 1009.8
20260902211303 94 0 0.0 0.0 0.00 0.00 0.00 59 1009.8
20260902210803 94 0 0.0 0.0 0.00 0.00 0.00 57 1009.8
20260902210303 95 0 0.0 0.0 0.00 0.00 0.00 57 1009.8
20260902205803 95 0 0.0 0.0 0.00 0.00 0.00 56 1009.8
20260902205306 95 0 0.0 0.0 0.00 0.00 0.00 55 1009.8
20260902204803 95 0 0.0 0.0 0.00 0.00 0.00 55 1009.8
20260902204303 95 0 0.0 0.0 0.00 0.00 0.00 55 1009.8
20260902203803 95 0 0.0 0.0 0.00 0.00 0.00 55 1009.9
20260902203303 95 0 0.0 0.0 0.00 0.00 0.00 56 1009.9
20260902202803 95 0 0.0 0.0 0.00 0.00 0.00 55 1009.9
20260902202306 96 0 0.0 0.0 0.00 0.00 0.00 55 1009.9
20260902201803 96 0 0.0 0.0 0.00 0.00 0.00 55 1009.9
20260902201303 96 0 0.0 0.0 0.00 0.00 0.00 54 1010.0
20260902200803 96 0 0.0 0.0 0.00 0.00 0.00 57 1009.9
20260902200303 96 0 0.0 0.0 0.00 0.00 0.00 56 1009.9
20260902195803 96 0 0.0 0.0 0.00 0.00 0.00 55 1010.0
20260902195306 96 0 0.0 0.0 0.00 0.00 0.00 56 1010.1
20260902194803 96 0 0.0 0.0 0.00 0.00 0.00 57 1010.1
20260902194303 96 0 0.0 0.0 0.00 0.00 0.00 55 1010.2
20260902193803 97 0 0.0 0.0 0.00 0.00 0.00 56 1010.2
20260902193303 97 0 0.0 0.0 0.00 0.00 0.00 56 1010.2
20260902192803 96 0 0.0 0.0 0.00 0.00 0.00 55 1010.4
20260902192306 96 0 0.0 0.0 0.00 0.00 0.00 57 1010.4
20260902191803 96 0 0.0 0.0 0.00 0.00 0.00 59 1010.4
20260902191303 95 0 0.0 0.0 0.00 0.00 0.00 59 1010.4
20260902190803 95 0 0.0 0.0 0.00 0.00 0.00 58 1010.5
20260902190303 95 0 0.0 0.0 0.00 0.00 0.00 57 1010.6
20260902185803 96 0 0.0 0.0 0.00 0.00 0.00 58 1010.6
20260902185306 96 0 0.0 0.0 0.00 0.00 0.00 56 1010.7
20260902184803 96 0 0.0 0.0 0.00 0.00 0.00 60 1010.7
20260902184303 96 0 0.0 0.0 0.00 0.00 0.00 57 1010.8
20260902183803 96 0 0.0 0.0 0.00 0.00 0.00 58 1010.7
20260902183303 95 0 0.0 0.0 0.00 0.00 0.00 59 1010.8
20260902182803 95 0 0.0 0.0 0.00 0.00 0.00 58 1010.7
20260902182306 95 0 0.0 0.0 0.00 0.00 0.00 59 1010.8
20260902181803 95 0 0.0 0.0 0.00 0.00 0.00 63 1010.8
20260902181303 95 0 0.0 0.0 0.00 0.00 0.00 61 1010.8
20260902180803 95 0 0.0 0.0 0.00 0.00 0.00 61 1010.8
20260902180303 95 0 0.0 0.0 0.00 0.00 0.00 62 1010.9
20260902175803 95 0 0.0 0.0 0.00 0.00 0.00 63 1010.9
20260902175307 95 0 0.0 0.0 0.00 0.00 0.00 62 1010.9
20260902174803 95 0 0.0 0.0 0.00 0.00 0.00 62 1011.0
20260902174303 95 0 0.0 0.0 0.00 0.00 0.00 62 1011.0
20260902173803 95 0 0.0 0.0 0.00 0.00 0.00 63 1011.1
20260902173303 95 0 0.0 0.0 0.00 0.00 0.00 59 1011.1
20260902172803 95 0 0.0 0.0 0.00 0.00 0.00 60 1011.2
20260902172307 95 0 0.0 0.0 0.00 0.00 0.00 61 1011.2
20260902171803 95 0 0.0 0.0 0.00 0.00 0.00 63 1011.3
20260902171303 95 0 0.0 0.0 0.00 0.00 0.00 62 1011.2
20260902170803 94 0 0.0 0.0 0.00 0.00 0.00 61 1011.4
20260902170303 94 0 0.0 0.0 0.00 0.00 0.00 63 1011.4
20260902165803 94 0 0.0 0.0 0.00 0.00 0.00 64 1011.4
20260902165308 93 0 0.0 0.0 0.00 0.00 0.00 65 1011.6
20260902164803 93 0 0.0 0.0 0.00 0.00 0.00 66 1011.7
20260902164303 93 0 0.0 0.0 0.00 0.00 0.00 65 1011.7
20260902163803 92 0 0.0 0.0 0.00 0.00 0.00 65 1011.7
20260902163303 92 0 0.0 0.0 0.00 0.00 0.00 67 1011.7
20260902162803 92 0 0.0 0.0 0.00 0.00 0.00 67 1012.0
20260902162306 91 0 0.0 0.0 0.00 0.00 0.00 69 1011.9
20260902161803 91 0 0.0 0.0 0.00 0.00 0.00 67 1011.7
20260902161303 91 0 0.0 0.0 0.00 0.00 0.00 68 1011.8
20260902160803 91 0 0.0 0.0 0.00 0.00 0.00 68 1011.7
20260902160303 90 0 0.0 0.0 0.00 0.00 0.00 69 1011.6
20260902155803 90 0 0.0 0.0 0.00 0.00 0.00 70 1011.7
20260902155306 89 0 0.0 0.0 0.00 0.00 0.00 70 1011.7
20260902154803 89 0 0.0 0.0 0.00 0.00 0.00 72 1011.8
20260902154303 89 0 0.0 0.0 0.00 0.00 0.00 72 1011.7
20260902153803 88 0 0.0 0.0 0.00 0.00 0.00 73 1011.9
20260902153303 88 0 0.0 0.0 0.00 0.00 0.00 74 1011.8
20260902152803 87 0 0.0 0.0 0.00 0.00 0.00 74 1011.9
20260902152307 87 0 0.0 0.0 0.00 0.00 0.00 76 1011.8
20260902151803 87 0 0.0 0.0 0.00 0.00 0.00 75 1012.0
20260902151303 86 0 0.0 0.0 0.00 0.00 0.00 75 1011.9
20260902150803 86 0 0.0 0.0 0.00 0.00 0.00 77 1012.0
20260902150303 86 0 0.0 0.0 0.00 0.00 0.00 76 1011.9
20260902145803 86 0 0.0 0.0 0.00 0.00 0.00 77 1011.9
20260902145305 85 0 0.0 0.0 0.00 0.00 0.00 78 1011.9
20260902144803 85 0 0.0 0.0 0.00 0.00 0.00 76 1012.0
20260902144303 85 0 0.0 0.0 0.00 0.00 0.00 76 1012.1
20260902143803 85 0 0.0 0.0 0.00 0.00 0.00 77 1012.1
20260902143303 85 0 0.0 0.0 0.00 0.00 0.00 77 1012.2
20260902142803 85 0 0.0 0.0 0.00 0.00 0.00 76 1012.1
20260902142306 85 0 0.0 0.0 0.00 0.00 0.00 77 1012.2
20260902141803 85 0 0.0 0.0 0.00 0.00 0.00 78 1012.1
20260902141303 84 0 0.0 0.0 0.00 0.00 0.00 79 1012.3
20260902140803 84 0 0.0 0.0 0.00 0.00 0.00 78 1012.1
20260902140303 83 0 0.0 0.0 0.00 0.00 0.00 81 1012.3
20260902135803 83 0 0.0 0.0 0.00 0.00 0.00 81 1012.3
20260902135306 82 0 0.0 0.0 0.00 0.00 0.00 82 1012.1
20260902134803 81 0 0.0 0.0 0.00 0.00 0.00 84 1012.4
20260902134303 81 0 0.0 0.0 0.00 0.00 0.00 84 1012.1
20260902133803 80 0 0.0 0.0 0.00 0.00 0.00 85 1012.1
20260902133303 80 0 0.0 0.0 0.00 0.00 0.00 87 1012.4
20260902132803 80 0 0.0 0.0 0.00 0.00 0.00 87 1012.0
20260902132306 79 0 0.0 0.0 0.00 0.00 0.00 87 1011.9
20260902131803 79 0 0.0 0.0 0.00 0.00 0.00 87 1011.9
20260902131303 79 0 0.0 0.0 0.00 0.00 0.00 88 1012.0
20260902130803 78 0 0.0 0.0 0.00 0.00 0.00 88 1012.0
20260902130303 78 0 0.0 0.0 0.00 0.00 0.00 89 1012.1
20260902125803 77 0 0.0 0.0 0.00 0.00 0.00 89 1012.1
20260902125305 77 0 0.0 0.0 0.00 0.00 0.00 89 1012.2
20260902124803 77 0 0.0 0.0 0.00 0.00 0.00 90 1012.3
20260902124303 76 0 0.0 0.0 0.00 0.00 0.00 91 1012.3
20260902123803 76 0 0.0 0.0 0.00 0.00 0.00 91 1011.9
20260902123303 76 0 0.0 0.0 0.00 0.00 0.00 91 1012.0
20260902122803 76 0 0.0 0.0 0.00 0.00 0.00 91 1012.0
20260902122305 76 0 0.0 0.0 0.00 0.00 0.00 92 1012.0
20260902121803 76 0 0.0 0.0 0.00 0.00 0.00 92 1011.9
20260902121303 76 0 0.0 0.0 0.00 0.00 0.00 92 1011.9
20260902120803 76 0 0.0 0.0 0.00 0.00 0.00 91 1011.9
20260902120303 75 0 0.0 0.0 0.00 0.00 0.00 91 1011.9
20260902115803 75 0 0.0 0.0 0.00 0.00 0.00 91 1012.0
20260902115306 75 0 0.0 0.0 0.00 0.00 0.00 91 1011.9
20260902114803 75 0 0.0 0.0 0.00 0.00 0.00 91 1011.9
20260902114303 75 0 0.0 0.0 0.00 0.00 0.00 91 1011.8
20260902113803 75 0 0.0 0.0 0.00 0.00 0.00 91 1011.9
20260902113303 75 0 0.0 0.0 0.00 0.00 0.00 90 1011.9
20260902112803 75 0 0.0 0.0 0.00 0.00 0.00 90 1011.9
20260902112305 76 0 0.0 0.0 0.00 0.00 0.00 90 1011.8
20260902111803 76 0 0.0 0.0 0.00 0.00 0.00 90 1011.8
20260902111303 76 0 0.0 0.0 0.00 0.00 0.00 90 1011.9
20260902110803 76 0 0.0 0.0 0.00 0.00 0.00 90 1011.9
20260902110303 76 0 0.0 0.0 0.00 0.00 0.00 90 1011.9
20260902105803 76 0 0.0 0.0 0.00 0.00 0.00 90 1012.0
20260902105306 76 0 0.0 0.0 0.00 0.00 0.00 90 1011.8
20260902104803 76 0 0.0 0.0 0.00 0.00 0.00 90 1011.8
20260902104303 76 0 0.0 0.0 0.00 0.00 0.00 90 1011.8
20260902103803 76 0 0.0 0.0 0.00 0.00 0.00 90 1011.8
20260902103303 76 0 0.0 0.0 0.00 0.00 0.00 90 1011.8
20260902102803 76 0 0.0 0.0 0.00 0.00 0.00 90 1011.8
20260902102307 76 0 0.0 0.0 0.00 0.00 0.00 90 1011.7
20260902101803 76 0 0.0 0.0 0.00 0.00 0.00 90 1011.8
20260902101303 76 0 0.0 0.0 0.00 0.00 0.00 90 1011.8
20260902100803 76 0 0.0 0.0 0.00 0.00 0.00 89 1011.8
20260902100303 76 0 0.0 0.0 0.00 0.00 0.00 90 1011.8
20260902095803 76 0 0.0 0.0 0.00 0.00 0.00 89 1011.8
20260902095306 76 0 0.0 0.0 0.00 0.00 0.00 89 1011.8
20260902094803 77 0 0.0 0.0 0.00 0.00 0.00 89 1011.8
20260902094303 77 0 0.0 0.0 0.00 0.00 0.00 89 1011.9
20260902093803 77 0 0.0 0.0 0.00 0.00 0.00 89 1011.9
20260902093303 77 0 0.0 0.0 0.00 0.00 0.00 89 1012.0
20260902092803 77 0 0.0 0.0 0.00 0.00 0.00 89 1011.9
20260902092305 77 0 0.0 0.0 0.00 0.00 0.00 88 1011.8
20260902091803 77 0 0.0 0.0 0.00 0.00 0.00 88 1011.8
20260902091303 77 0 0.0 0.0 0.00 0.00 0.00 88 1011.8
20260902090803 77 0 0.0 0.0 0.00 0.00 0.00 88 1011.8
20260902090303 77 0 0.0 0.0 0.00 0.00 0.00 88 1011.7
20260902085803 77 0 0.0 0.0 0.00 0.00 0.00 88 1011.7
20260902085306 77 0 0.0 0.0 0.00 0.00 0.00 88 1011.7
20260902084803 77 0 0.0 0.0 0.00 0.00 0.00 88 1011.7
20260902084303 77 0 0.0 0.0 0.00 0.00 0.00 89 1011.8
20260902083803 77 0 0.0 0.0 0.00 0.00 0.00 89 1011.7
20260902083303 77 0 0.0 0.0 0.00 0.00 0.00 89 1011.6
20260902082803 77 0 0.0 0.0 0.00 0.00 0.00 89 1011.6
20260902082308 77 0 0.0 0.0 0.00 0.00 0.00 89 1011.5
20260902081803 77 0 0.0 0.0 0.00 0.00 0.00 89 1011.4
20260902081303 77 0 0.0 0.0 0.00 0.00 0.00 89 1011.5
20260902080803 78 0 0.0 0.0 0.00 0.00 0.00 89 1011.4
20260902080303 78 0 0.0 0.0 0.00 0.00 0.00 89 1011.5
20260902075803 78 0 0.0 0.0 0.00 0.00 0.00 88 1011.4
20260902075306 78 0 0.0 0.0 0.00 0.00 0.00 88 1011.5
20260902074803 78 0 0.0 0.0 0.00 0.00 0.00 88 1011.5
20260902074303 78 0 0.0 0.0 0.00 0.00 0.00 88 1011.6
20260902073803 78 0 0.0 0.0 0.00 0.00 0.00 88 1011.6
20260902073303 78 0 0.0 0.0 0.00 0.00 0.00 88 1011.5
20260902072803 78 0 0.0 0.0 0.00 0.00 0.00 88 1011.4
20260902072308 78 0 0.0 0.0 0.00 0.00 0.00 88 1011.4
20260902071803 78 0 0.0 0.0 0.00 0.00 0.00 87 1011.4
20260902071303 78 0 0.0 0.0 0.00 0.00 0.00 87 1011.5
20260902070803 79 0 0.0 0.0 0.00 0.00 0.00 87 1011.5
20260902070303 79 0 0.0 0.0 0.00 0.00 0.00 87 1011.5
20260902065803 79 0 0.0 0.0 0.00 0.00 0.00 87 1011.6
20260902065306 79 0 0.0 0.0 0.00 0.00 0.00 87 1011.6
20260902064803 79 0 0.0 0.0 0.00 0.00 0.00 87 1011.7
20260902064303 79 0 0.0 0.0 0.00 0.00 0.00 87 1011.7
20260902063803 79 0 0.0 0.0 0.00 0.00 0.00 87 1011.6
20260902063303 79 0 0.0 0.0 0.00 0.00 0.00 86 1011.7
20260902062803 79 0 0.0 0.0 0.00 0.00 0.00 86 1011.6
20260902062305 79 0 0.0 0.0 0.00 0.00 0.00 86 1011.6
20260902061803 80 0 0.0 0.0 0.00 0.00 0.00 86 1011.5
20260902060803 80 0 0.0 0.0 0.00 0.00 0.00 85 1011.6
20260902060303 80 0 0.0 0.0 0.00 0.00 0.00 85 1011.6
20260902055803 80 0 0.0 0.0 0.00 0.00 0.00 85 1011.6
20260902055306 80 0 0.0 0.0 0.00 0.00 0.00 85 1011.5
20260902054803 80 0 0.0 0.0 0.00 0.00 0.00 85 1011.4
20260902054303 81 0 0.0 0.0 0.00 0.00 0.00 85 1011.3
20260902053803 81 0 0.0 0.0 0.00 0.00 0.00 85 1011.3
20260902053303 81 0 0.0 0.0 0.00 0.00 0.00 85 1011.4
20260902052803 81 0 0.0 0.0 0.00 0.00 0.00 85 1011.4
20260902052306 81 0 0.0 0.0 0.00 0.00 0.00 85 1011.4
20260902051803 81 0 0.0 0.0 0.00 0.00 0.00 85 1011.4
20260902051303 81 0 0.0 0.0 0.00 0.00 0.00 85 1011.4
20260902050803 81 0 0.0 0.0 0.00 0.00 0.00 85 1011.5
20260902050303 81 0 0.0 0.0 0.00 0.00 0.00 85 1011.6
20260902045803 81 0 0.0 0.0 0.00 0.00 0.00 84 1011.6
20260902045306 81 0 0.0 0.0 0.00 0.00 0.00 84 1011.6
20260902044803 81 0 0.0 0.0 0.00 0.00 0.00 84 1011.6
20260902044303 81 0 0.0 0.0 0.00 0.00 0.00 84 1011.6
20260902043803 81 0 0.0 0.0 0.00 0.00 0.00 84 1011.4
20260902043303 81 0 0.0 0.0 0.00 0.00 0.00 83 1011.4
20260902042803 81 0 0.0 0.0 0.00 0.00 0.00 83 1011.3
20260902042308 82 0 0.0 0.0 0.00 0.00 0.00 83 1011.4
20260902041803 82 0 0.0 0.0 0.00 0.00 0.00 83 1011.5
20260902041303 82 0 0.0 0.0 0.00 0.00 0.00 83 1011.5
20260902040803 82 0 0.0 0.0 0.00 0.00 0.00 83 1011.4
20260902040303 82 0 0.0 0.0 0.00 0.00 0.00 83 1011.6
20260902035803 82 0 0.0 0.0 0.00 0.00 0.00 83 1011.6
20260902035305 82 0 0.0 0.0 0.00 0.00 0.00 83 1011.7
20260902034803 82 0 0.0 0.0 0.00 0.00 0.00 82 1011.7
20260902034303 82 0 0.0 0.0 0.00 0.00 0.00 82 1011.7
20260902033803 82 0 0.0 0.0 0.00 0.00 0.00 82 1011.7
20260902033303 83 0 0.0 0.0 0.00 0.00 0.00 81 1011.7
20260902032803 83 0 0.0 0.0 0.00 0.00 0.00 81 1011.7
20260902032305 83 0 0.0 0.0 0.00 0.00 0.00 81 1011.7
20260902031803 83 0 0.0 0.0 0.00 0.00 0.00 81 1011.7
20260902031303 83 0 0.0 0.0 0.00 0.00 0.00 81 1011.8
20260902030803 83 0 0.0 0.0 0.00 0.00 0.00 81 1011.8
20260902030303 83 0 0.0 0.0 0.00 0.00 0.00 80 1011.9
20260902025803 83 0 0.0 0.0 0.00 0.00 0.00 80 1011.8
20260902025306 83 0 0.0 0.0 0.00 0.00 0.00 80 1011.8
20260902024803 83 0 0.0 0.0 0.00 0.00 0.00 80 1011.7
20260902024303 83 0 0.0 0.0 0.00 0.00 0.00 80 1011.7
20260902023803 83 0 0.0 0.0 0.00 0.00 0.00 80 1011.7
20260902023303 84 0 0.0 0.0 0.00 0.00 0.00 80 1011.6
20260902022803 84 0 0.0 0.0 0.00 0.00 0.00 80 1011.6
20260902022305 84 0 0.0 0.0 0.00 0.00 0.00 79 1011.6
20260902021803 84 0 0.0 0.0 0.00 0.00 0.00 79 1011.6
20260902021303 84 0 0.0 0.0 0.00 0.00 0.00 79 1011.6
20260902020803 84 0 0.0 0.0 0.00 0.00 0.00 79 1011.4
20260902020303 84 0 0.0 0.0 0.00 0.00 0.00 79 1011.4
20260902015803 85 0 0.0 0.0 0.00 0.00 0.00 79 1011.4
20260902015305 85 0 0.0 0.0 0.00 0.00 0.00 79 1011.3
20260902014803 85 0 0.0 0.0 0.00 0.00 0.00 79 1011.3
20260902014303 85 0 0.0 0.0 0.00 0.00 0.00 79 1011.3
20260902013803 85 0 0.0 0.0 0.00 0.00 0.00 79 1011.2
20260902013303 85 0 0.0 0.0 0.00 0.00 0.00 79 1011.2
20260902012308 86 0 0.0 0.0 0.00 0.00 0.00 78 1011.0
20260902011803 86 0 0.0 0.0 0.00 0.00 0.00 78 1010.9
20260902011303 86 0 0.0 0.0 0.00 0.00 0.00 78 1010.9
20260902010803 86 0 0.0 0.0 0.00 0.00 0.00 78 1010.9
20260902010303 87 0 0.0 0.0 0.00 0.00 0.00 78 1010.8
20260902005803 87 0 0.0 0.0 0.00 0.00 0.00 77 1010.6
20260902005305 87 0 0.0 0.0 0.00 0.00 0.00 77 1010.5
20260902004803 87 0 0.0 0.0 0.00 0.00 0.00 76 1010.5
20260902004303 87 0 0.0 0.0 0.00 0.00 0.00 76 1010.5
20260902003803 88 0 0.0 0.0 0.00 0.00 0.00 76 1010.4
20260902003303 88 0 0.0 0.0 0.00 0.00 0.00 76 1010.4
20260902002803 88 0 0.0 0.0 0.00 0.00 0.00 76 1010.4
20260902002306 88 0 0.0 0.0 0.00 0.00 0.00 76 1010.4
20260902001803 88 0 0.0 0.0 0.00 0.00 0.00 76 1010.5
20260902001303 88 0 0.0 0.0 0.00 0.00 0.00 76 1010.5
20260902000803 89 0 0.0 0.0 0.00 0.00 0.00 76 1010.5
20260902000304 89 0 0.0 0.0 0.00 0.00 0.00 76 1010.5
20260901235803 89 0 0.0 0.0 0.00 0.00 0.00 76 1010.5
20260901235307 89 0 0.0 0.0 0.00 0.00 0.00 75 1010.7